[ hide orbit diagram ]
For accurate long-term ephemerides, please instead use our Horizons system.This orbit viewer was implemented using two-body methods, and hence should not be used for determining accurate long-term trajectories (over several years or decades) or planetary encounter circumstances.
Orbital Elements at Epoch 2459000.5 (2020-May-31.0) TDB
Reference: JPL 19 (heliocentric ecliptic J2000)
Element | Value | Uncertainty (1-sigma) | Units |
e | .2000271613348688 | 3.5317e-08 | |
a | 2.324534867116447 | 6.9627e-09 | au |
q | 1.859564756223218 | 8.4138e-08 | au |
i | 4.31598655714949 | 4.1987e-06 | deg |
node | 322.6383760885496 | 5.068e-05 | deg |
peri | 83.8244510863008 | 5.2643e-05 | deg |
M | 32.66135827255812 | 1.2267e-05 | deg |
tp | 2458883.055072294150 (2020-Feb-03.55507229) | 4.3943e-05 | TDB |
period | 1294.501398909348 3.54 | 5.8162e-06 1.592e-08 | d yr |
n | .2780993518456678 | 1.2495e-09 | deg/d |
Q | 2.789504978009677 | 8.3555e-09 | au |
|
| | Orbit Determination Parameters
Additional Information
|
[ show covariance matrix ]
Physical Parameter Table
Parameter |
Symbol |
Value |
Units |
Sigma |
Reference |
Notes |
absolute magnitude |
H |
15.5 |
|
n/a |
MPC43337 |
|
diameter |
diameter |
2.069 |
km |
0.611 |
urn:nasa:pds:neowise_diameters_albedos::2.0[mainbelt] (http://adsabs.harvard.edu/abs/2011ApJ...741...68M) |
|
geometric albedo |
albedo |
0.313 |
|
0.161 |
urn:nasa:pds:neowise_diameters_albedos::2.0[mainbelt] (http://adsabs.harvard.edu/abs/2011ApJ...741...68M) |
|
|
101409 (1998 VQ6) Discovered 1998-Nov-11 by Shimizu, Y., Urata, T. at Nachi-Katsuura |
Reference: 20051019/Numbers.arc | Last Updated: 2005-10-26 |
|
|